• In Germany
  • List of Countries
  • For 7 days
  • Water Temperature
  • Satellite Maps
  • Weather Map
  • Weather Widgets
  • user-avatar
    Login

    Hourly Weather Yulara

    Today, 27 May, Saturday

    Time Temperature Precipitation Wind Pressure Humidity
    00:00 +20°C° 0 mm 4 mps 720 mmHg 42%
    01:00 +20°C° 0 mm 4 mps 719 mmHg 41%
    02:00 +19°C° 0 mm 4 mps 719 mmHg 39%
    03:00 +19°C° 0 mm 4 mps 719 mmHg 38%
    04:00 +19°C° 0 mm 4 mps 719 mmHg 36%
    05:00 +18°C° 0 mm 4 mps 720 mmHg 35%
    06:00 +18°C° 0 mm 4 mps 720 mmHg 34%
    07:00 +19°C° 0 mm 3 mps 720 mmHg 31%
    08:00 +20°C° 0 mm 3 mps 720 mmHg 29%
    09:00 +21°C° 0 mm 2 mps 721 mmHg 26%
    10:00 +23°C° 0 mm 2 mps 721 mmHg 24%
    11:00 +25°C° 0 mm 1 mps 721 mmHg 21%
    12:00 +26°C° 0 mm 1 mps 721 mmHg 18%
    13:00 +26°C° 0 mm 2 mps 720 mmHg 18%
    14:00 +27°C° 0 mm 2 mps 720 mmHg 18%
    15:00 +27°C° 0 mm 2 mps 720 mmHg 18%
    16:00 +26°C° 0 mm 2 mps 720 mmHg 21%
    17:00 +25°C° 0 mm 2 mps 720 mmHg 23%
    18:00 +23°C° 0 mm 1 mps 720 mmHg 26%
    19:00 +23°C° 0 mm 1 mps 720 mmHg 28%
    20:00 +22°C° 0 mm 1 mps 720 mmHg 29%
    21:00 +21°C° 0 mm 1 mps 720 mmHg 31%
    22:00 +21°C° 0 mm 1 mps 720 mmHg 31%
    23:00 +20°C° 0 mm 2 mps 720 mmHg 31%

    Tomorrow, 28 May, Sunday

    Time Temperature Precipitation Wind Pressure Humidity
    00:00 +19°C° 0 mm 2 mps 721 mmHg 31%
    01:00 +19°C° 0 mm 2 mps 720 mmHg 32%
    02:00 +18°C° 0 mm 3 mps 720 mmHg 33%
    03:00 +17°C° 0 mm 3 mps 720 mmHg 34%
    04:00 +17°C° 0 mm 4 mps 720 mmHg 35%
    05:00 +15°C° 0 mm 4 mps 721 mmHg 37%
    06:00 +15°C° 0 mm 4 mps 721 mmHg 38%
    07:00 +15°C° 0 mm 4 mps 721 mmHg 38%
    08:00 +16°C° 0 mm 5 mps 722 mmHg 37%
    09:00 +17°C° 0 mm 5 mps 722 mmHg 36%
    10:00 +19°C° 0 mm 5 mps 722 mmHg 34%
    11:00 +21°C° 0 mm 4 mps 722 mmHg 31%
    12:00 +22°C° 0 mm 4 mps 722 mmHg 28%
    13:00 +22°C° 0 mm 3 mps 722 mmHg 28%
    14:00 +24°C° 0 mm 3 mps 721 mmHg 27%
    15:00 +24°C° 0 mm 3 mps 721 mmHg 26%
    16:00 +22°C° 0 mm 3 mps 721 mmHg 29%
    17:00 +21°C° 0 mm 3 mps 721 mmHg 32%
    18:00 +21°C° 0 mm 3 mps 721 mmHg 34%
    19:00 +20°C° 0 mm 4 mps 722 mmHg 38%
    20:00 +19°C° 0 mm 4 mps 722 mmHg 42%
    21:00 +17°C° 0 mm 5 mps 723 mmHg 46%
    22:00 +17°C° 0 mm 5 mps 723 mmHg 47%
    23:00 +16°C° 0 mm 5 mps 723 mmHg 49%

    Day after tomorrow, 29 May, Monday

    Time Temperature Precipitation Wind Pressure Humidity
    00:00 +15°C° 0 mm 4 mps 723 mmHg 50%
    01:00 +15°C° 0 mm 4 mps 723 mmHg 50%
    02:00 +14°C° 0 mm 4 mps 723 mmHg 51%
    03:00 +14°C° 0 mm 4 mps 723 mmHg 51%
    04:00 +13°C° 0 mm 4 mps 723 mmHg 54%
    05:00 +13°C° 0 mm 4 mps 723 mmHg 57%
    06:00 +12°C° 0 mm 4 mps 723 mmHg 59%
    07:00 +13°C° 0 mm 5 mps 723 mmHg 59%
    08:00 +13°C° 0 mm 5 mps 724 mmHg 58%
    09:00 +14°C° 0 mm 6 mps 724 mmHg 57%
    10:00 +15°C° 0 mm 5 mps 724 mmHg 52%
    11:00 +16°C° 0 mm 5 mps 724 mmHg 48%
    12:00 +19°C° 0 mm 4 mps 723 mmHg 43%
    13:00 +19°C° 0 mm 4 mps 723 mmHg 41%
    14:00 +20°C° 0 mm 3 mps 722 mmHg 39%
    15:00 +21°C° 0 mm 3 mps 722 mmHg 37%
    16:00 +20°C° 0 mm 2 mps 722 mmHg 39%
    17:00 +19°C° 0 mm 2 mps 722 mmHg 41%
    18:00 +19°C° 0 mm 2 mps 722 mmHg 43%
    19:00 +18°C° 0 mm 3 mps 723 mmHg 45%
    20:00 +17°C° 0 mm 3 mps 723 mmHg 47%
    21:00 +17°C° 0 mm 3 mps 724 mmHg 49%
    22:00 +16°C° 0 mm 3 mps 724 mmHg 50%
    23:00 +16°C° 0 mm 3 mps 724 mmHg 51%

    30 May, Tuesday

    Time Temperature Precipitation Wind Pressure Humidity
    00:00 +14°C° 0 mm 3 mps 724 mmHg 53%
    01:00 +14°C° 0 mm 3 mps 724 mmHg 53%
    02:00 +13°C° 0 mm 3 mps 723 mmHg 53%
    03:00 +12°C° 0 mm 3 mps 723 mmHg 53%
    04:00 +12°C° 0 mm 3 mps 724 mmHg 54%
    05:00 +12°C° 0 mm 3 mps 724 mmHg 54%
    06:00 +11°C° 0 mm 3 mps 724 mmHg 54%
    07:00 +12°C° 0 mm 4 mps 725 mmHg 52%
    08:00 +13°C° 0 mm 4 mps 725 mmHg 49%
    09:00 +13°C° 0 mm 5 mps 726 mmHg 47%
    10:00 +15°C° 0 mm 5 mps 726 mmHg 44%
    11:00 +16°C° 0 mm 5 mps 725 mmHg 40%
    12:00 +17°C° 0 mm 5 mps 725 mmHg 37%
    13:00 +19°C° 0 mm 5 mps 725 mmHg 35%
    14:00 +19°C° 0 mm 5 mps 724 mmHg 33%
    15:00 +20°C° 0 mm 5 mps 724 mmHg 31%
    16:00 +19°C° 0 mm 5 mps 724 mmHg 33%
    17:00 +17°C° 0 mm 5 mps 724 mmHg 36%
    18:00 +16°C° 0 mm 5 mps 724 mmHg 38%
    19:00 +15°C° 0 mm 4 mps 725 mmHg 40%
    20:00 +14°C° 0 mm 4 mps 725 mmHg 42%
    21:00 +14°C° 0 mm 4 mps 725 mmHg 44%
    22:00 +13°C° 0 mm 4 mps 725 mmHg 47%
    23:00 +12°C° 0 mm 4 mps 725 mmHg 49%

    31 May, Wednesday

    Time Temperature Precipitation Wind Pressure Humidity
    00:00 +12°C° 0 mm 4 mps 726 mmHg 51%
    01:00 +11°C° 0 mm 4 mps 726 mmHg 55%
    02:00 +11°C° 0 mm 4 mps 726 mmHg 59%
    03:00 +10°C° 0 mm 4 mps 726 mmHg 63%
    04:00 +10°C° 0 mm 4 mps 726 mmHg 67%
    05:00 +10°C° 0 mm 4 mps 726 mmHg 71%
    06:00 +8°C° 0 mm 4 mps 726 mmHg 75%
    07:00 +9°C° 0 mm 5 mps 727 mmHg 70%
    08:00 +10°C° 0 mm 6 mps 727 mmHg 65%
    09:00 +11°C° 0 mm 7 mps 727 mmHg 61%
    10:00 +12°C° 0 mm 7 mps 727 mmHg 52%
    11:00 +14°C° 0 mm 7 mps 726 mmHg 44%
    12:00 +16°C° 0 mm 7 mps 726 mmHg 36%
    13:00 +16°C° 0 mm 7 mps 725 mmHg 33%
    14:00 +17°C° 0 mm 7 mps 725 mmHg 30%
    15:00 +18°C° 0 mm 7 mps 724 mmHg 26%
    16:00 +16°C° 0 mm 6 mps 725 mmHg 29%
    17:00 +15°C° 0 mm 6 mps 725 mmHg 31%
    18:00 +14°C° 0 mm 5 mps 726 mmHg 33%
    19:00 +13°C° 0 mm 5 mps 726 mmHg 35%
    20:00 +13°C° 0 mm 5 mps 727 mmHg 36%
    21:00 +12°C° 0 mm 5 mps 727 mmHg 38%
    22:00 +10°C° 0 mm 5 mps 727 mmHg 39%
    23:00 +10°C° 0 mm 5 mps 727 mmHg 39%

    1 June, Thursday

    Time Temperature Precipitation Wind Pressure Humidity
    00:00 +9°C° 0 mm 5 mps 727 mmHg 40%
    01:00 +9°C° 0 mm 5 mps 727 mmHg 41%
    02:00 +8°C° 0 mm 5 mps 727 mmHg 42%
    03:00 +8°C° 0 mm 5 mps 727 mmHg 43%
    04:00 +7°C° 0 mm 5 mps 727 mmHg 46%
    05:00 +7°C° 0 mm 5 mps 727 mmHg 49%
    06:00 +7°C° 0 mm 5 mps 727 mmHg 51%
    07:00 +7°C° 0 mm 6 mps 728 mmHg 50%
    08:00 +8°C° 0 mm 7 mps 728 mmHg 49%
    09:00 +9°C° 0 mm 7 mps 728 mmHg 48%
    10:00 +11°C° 0 mm 7 mps 728 mmHg 42%
    11:00 +12°C° 0 mm 7 mps 727 mmHg 36%
    12:00 +15°C° 0 mm 7 mps 727 mmHg 31%
    13:00 +16°C° 0 mm 7 mps 726 mmHg 28%
    14:00 +16°C° 0 mm 7 mps 726 mmHg 25%
    15:00 +17°C° 0 mm 7 mps 725 mmHg 23%
    16:00 +16°C° 0 mm 6 mps 726 mmHg 25%
    17:00 +15°C° 0 mm 5 mps 726 mmHg 27%
    18:00 +14°C° 0 mm 5 mps 726 mmHg 29%
    19:00 +13°C° 0 mm 5 mps 726 mmHg 32%
    20:00 +12°C° 0 mm 5 mps 727 mmHg 34%
    21:00 +12°C° 0 mm 5 mps 727 mmHg 37%
    22:00 +10°C° 0 mm 5 mps 727 mmHg 40%
    23:00 +10°C° 0 mm 5 mps 727 mmHg 42%
    Show more